Tracking 19634 objects as of 21-May-2019
HD Live streaming from Space Station
objects crossing your sky now

TVSAT 2

Track TVSAT 2 now!
TVSAT 2 is classified as:


NORAD ID: 20168
Int'l Code: 1989-062A
Perigee: 35,892.8 km
Apogee: 35,931.3 km
Inclination: 14.5 °
Period: 1,442.1 minutes
Semi major axis: 42283 km
RCS: 2.0976 m2 (large)
Launch date: August 8, 1989
Source: Germany (GER)
Launch site: FRENCH GUIANA (FRGUI)
aabbcc
Your satellite tracking list
Your tracking list is empty




NASA's NSSDC Master Catalog

Two Line Element Set (TLE):
1 20168U 89062A   19140.31766747  .00000041  00000-0  00000+0 0  9992
2 20168  14.5338  16.7002 0004551  36.5379 135.7023  0.99851112108687
Source of the keplerian elements: AFSPC